Location: Heisler
(52.6701°N, 112.2239°W)
Time: 14:39:17
(UTC+00:00)

Envisat - Pass Details

Date: 01 December 2021
Orbit: 764 x 766 km, 98.2° (Epoch: 26 January)

Event Time Altitude Azimuth Distance (km) Brightness Sun altitude
Rises 14:01:24 0° 8° (N) 3,249 6.1 -11.0°
Reaches altitude 10° 14:04:00 10° 357° (N) 2,318 5.2 -10.6°
Maximum altitude 14:08:13 27° 301° (WNW) 1,455 3.9 -10.0°
Drops below altitude 10° 14:12:25 10° 245° (WSW) 2,305 5.1 -9.5°
Sets 14:15:00 0° 233° (SW) 3,226 5.9 -9.1°
